GW4934 Weather Reports


Display with metric or nautical units.
time (UTC)temp
F
wind
direction
speed
MPH
gust
MPH
rain 1hr
in
rain 24hr
in
rain mn
in
humidity
%
barometer
mb
20260509024414 80 113 8.0 11.0 0.00 0.00 0.02 92 1009.0
20260509023914 80 59 6.0 11.0 0.00 0.00 0.02 92 1010.0
20260509023413 80 72 2.0 11.0 0.00 0.00 0.02 90 1010.0
20260509022916 81 336 2.0 10.0 0.00 0.00 0.01 91 1010.0
20260509022414 81 30 0.0 7.0 0.00 0.00 0.01 91 1010.0
20260509021446 81 6 0.0 7.0 0.00 0.00 0.01 91 1009.0
20260509020915 81 32 0.0 8.0 0.00 0.00 0.01 91 1009.0
20260509020416 81 44 1.0 8.0 0.00 0.00 0.01 91 1009.0
20260509015913 81 1 0.0 8.0 0.00 0.00 0.01 91 1009.0
20260509015413 81 31 0.0 9.0 0.00 0.00 0.01 91 1009.0
20260509014916 81 31 0.0 9.0 0.00 0.00 0.01 91 1009.0
20260509014419 81 356 0.0 7.0 0.00 0.00 0.01 91 1009.0
20260509013915 81 23 1.0 7.0 0.00 0.00 0.01 92 1009.0
20260509013414 81 338 5.0 7.0 0.00 0.00 0.01 92 1009.0
20260509012915 81 22 0.0 7.0 0.00 0.00 0.01 92 1009.0
20260509012414 81 359 1.0 7.0 0.00 0.00 0.01 92 1009.0
20260509011913 81 19 7.0 7.0 0.00 0.00 0.01 92 1009.0
20260509011414 81 37 0.0 7.0 0.00 0.00 0.01 92 1009.0
20260509010913 81 23 5.0 7.0 0.00 0.00 0.01 92 1008.0
20260509010414 81 1 2.0 5.0 0.00 0.00 0.01 92 1008.0
20260509005914 81 360 1.0 5.0 0.00 0.00 0.01 92 1008.0
20260509005413 81 4 0.0 3.0 0.00 0.00 0.01 92 1008.0
20260509004913 80 21 0.0 2.0 0.00 0.00 0.01 92 1008.0
20260509004414 80 19 0.0 1.0 0.00 0.00 0.01 93 1008.0
20260509003913 80 19 0.0 3.0 0.00 0.00 0.01 93 1008.0
20260509003415 80 15 0.0 3.0 0.00 0.00 0.01 92 1008.0
20260509002914 80 37 1.0 4.0 0.00 0.00 0.01 92 1008.0
20260509002414 80 8 0.0 4.0 0.00 0.00 0.01 92 1008.0
20260509001917 80 34 0.0 6.0 0.00 0.00 0.01 92 1008.0
20260509001416 80 32 0.0 6.0 0.00 0.00 0.01 92 1007.0
20260509000915 80 15 1.0 5.0 0.00 0.00 0.01 92 1007.0
20260509000414 80 32 0.0 7.0 0.00 0.00 0.01 92 1007.0
20260508235915 80 46 3.0 7.0 0.00 0.00 0.01 92 1007.0
20260508235416 80 12 3.0 8.0 0.00 0.00 0.01 92 1007.0
20260508234915 81 78 0.0 8.0 0.00 0.00 0.01 92 1008.0
20260508234414 81 49 1.0 4.0 0.00 0.00 0.00 92 1007.0
20260508233913 81 49 0.0 4.0 0.00 0.00 0.00 91 1008.0
20260508233413 81 74 0.0 5.0 0.00 0.00 0.00 91 1007.0
20260508232915 81 44 1.0 5.0 0.00 0.00 0.00 91 1007.0
20260508232416 81 2 0.0 4.0 0.00 0.00 0.00 91 1007.0
20260508231914 81 326 0.0 4.0 0.00 0.00 0.00 91 1007.0
20260508231414 81 5 0.0 4.0 0.00 0.00 0.00 91 1007.0
20260508230915 81 295 0.0 6.0 0.00 0.00 0.00 91 1007.0
20260508230414 81 359 3.0 6.0 0.00 0.00 0.00 91 1007.0
20260508225913 81 329 0.0 1.0 0.00 0.00 0.00 91 1007.0
20260508225414 81 300 0.0 2.0 0.00 0.00 0.00 92 1007.0
20260508224913 81 353 0.0 2.0 0.00 0.00 0.00 91 1007.0
20260508224414 81 298 0.0 2.0 0.00 0.00 0.00 91 1007.0
20260508223915 81 295 0.0 1.0 0.00 0.00 0.00 91 1007.0
20260508223418 81 282 0.0 1.0 0.00 0.00 0.00 91 1007.0
20260508222916 81 283 0.0 1.0 0.00 0.00 0.00 91 1007.0
20260508222415 81 293 0.0 3.0 0.00 0.00 0.00 91 1007.0
20260508221914 81 303 0.0 3.0 0.00 0.00 0.00 91 1007.0
20260508221414 82 281 0.0 2.0 0.00 0.00 0.00 91 1007.0
20260508220917 82 330 0.0 2.0 0.00 0.00 0.00 91 1007.0
20260508220415 82 328 0.0 2.0 0.00 0.00 0.00 91 1007.0
20260508215914 82 339 0.0 2.0 0.00 0.00 0.00 91 1007.0
20260508215417 82 298 0.0 1.0 0.00 0.00 0.00 91 1007.0
20260508214921 82 340 0.0 2.0 0.00 0.00 0.00 91 1007.0
20260508214417 82 333 0.0 4.0 0.00 0.00 0.00 91 1007.0
20260508213919 82 38 0.0 4.0 0.00 0.00 0.00 91 1007.0
20260508213414 82 291 0.0 4.0 0.00 0.00 0.00 91 1007.0
20260508212915 82 319 2.0 5.0 0.00 0.00 0.00 91 1007.0
20260508212414 82 13 0.0 5.0 0.00 0.00 0.00 91 1007.0
20260508211917 82 30 0.0 5.0 0.00 0.00 0.00 91 1007.0
20260508211416 82 7 3.0 5.0 0.00 0.00 0.00 91 1007.0
20260508210917 82 341 3.0 5.0 0.00 0.00 0.00 91 1007.0
20260508210415 82 343 0.0 5.0 0.00 0.00 0.00 91 1007.0
20260508205914 82 331 0.0 6.0 0.00 0.00 0.00 91 1007.0
20260508205415 82 312 0.0 6.0 0.00 0.00 0.00 91 1007.0
20260508204915 82 350 4.0 6.0 0.00 0.00 0.00 91 1007.0
20260508204416 82 328 4.0 6.0 0.00 0.00 0.00 91 1007.0
20260508203915 82 344 4.0 4.0 0.00 0.00 0.00 91 1007.0
20260508203414 82 356 0.0 4.0 0.00 0.00 0.00 91 1007.0
20260508202914 82 28 0.0 4.0 0.00 0.00 0.00 91 1007.0
20260508202415 82 348 3.0 3.0 0.00 0.00 0.00 90 1007.0
20260508201915 82 335 0.0 3.0 0.00 0.00 0.00 91 1007.0
20260508201414 82 346 0.0 3.0 0.00 0.00 0.00 91 1007.0
20260508200915 82 11 0.0 3.0 0.00 0.00 0.00 91 1008.0
20260508200416 82 352 0.0 3.0 0.00 0.00 0.00 90 1007.0
20260508195914 83 345 0.0 0.0 0.00 0.00 0.00 91 1007.0
20260508195416 82 8 0.0 1.0 0.00 0.00 0.00 90 1007.0
20260508194917 82 12 0.0 1.0 0.00 0.00 0.00 91 1008.0
20260508194416 82 15 0.0 2.0 0.00 0.00 0.00 91 1008.0
20260508193915 82 11 0.0 3.0 0.00 0.00 0.00 91 1008.0
20260508193415 83 340 1.0 3.0 0.00 0.00 0.00 91 1008.0
20260508192917 83 4 1.0 4.0 0.00 0.00 0.00 90 1008.0
20260508192417 83 338 2.0 4.0 0.00 0.00 0.00 90 1008.0
20260508191913 83 333 1.0 4.0 0.00 0.00 0.00 90 1008.0
20260508191416 83 324 0.0 5.0 0.00 0.00 0.00 90 1008.0
20260508190914 83 304 0.0 5.0 0.00 0.00 0.00 90 1008.0
20260508190418 83 319 0.0 4.0 0.00 0.00 0.00 89 1008.0
20260508185915 83 297 0.0 2.0 0.00 0.00 0.00 88 1008.0
20260508185416 84 276 0.0 1.0 0.00 0.00 0.00 87 1008.0
20260508184917 84 290 0.0 0.0 0.00 0.00 0.00 87 1008.0
20260508184414 84 90 0.0 0.0 0.00 0.00 0.00 86 1008.0
20260508183915 84 90 0.0 0.0 0.00 0.00 0.00 86 1009.0
20260508183415 84 90 0.0 0.0 0.00 0.00 0.00 86 1009.0
20260508182915 84 90 0.0 0.0 0.00 0.00 0.00 86 1009.0
20260508182418 84 90 0.0 0.0 0.00 0.00 0.00 86 1009.0
20260508181913 84 90 0.0 0.0 0.00 0.00 0.00 86 1009.0
20260508181414 84 90 0.0 0.0 0.00 0.00 0.00 86 1009.0
20260508180913 84 95 0.0 0.0 0.00 0.00 0.00 86 1009.0
20260508180415 84 95 0.0 0.0 0.00 0.00 0.00 86 1009.0
20260508175915 84 95 0.0 0.0 0.00 0.00 0.00 86 1009.0
20260508175416 84 100 0.0 4.0 0.00 0.00 0.00 86 1009.0
20260508174915 84 89 0.0 4.0 0.00 0.00 0.00 86 1009.0
20260508174417 84 101 0.0 2.0 0.00 0.00 0.00 86 1009.0
20260508173915 84 98 0.0 0.0 0.00 0.00 0.00 86 1009.0
20260508173416 84 98 0.0 0.0 0.00 0.00 0.00 86 1009.0
20260508172914 84 98 0.0 3.0 0.00 0.00 0.00 85 1009.0
20260508172414 84 118 0.0 3.0 0.00 0.00 0.00 86 1009.0
20260508171915 84 139 0.0 1.0 0.00 0.00 0.00 86 1009.0
20260508171414 84 96 0.0 1.0 0.00 0.00 0.00 86 1009.0
20260508170914 84 94 0.0 2.0 0.00 0.00 0.00 86 1009.0
20260508170416 84 116 0.0 2.0 0.00 0.00 0.00 86 1009.0
20260508165914 84 77 0.0 1.0 0.00 0.00 0.00 86 1009.0
20260508165414 84 79 0.0 1.0 0.00 0.00 0.00 86 1009.0
20260508164918 84 83 0.0 1.0 0.00 0.00 0.00 87 1009.0
20260508164417 84 103 0.0 0.0 0.00 0.00 0.00 87 1009.0
20260508163917 84 103 0.0 0.0 0.00 0.00 0.00 87 1009.0
20260508163416 84 103 0.0 4.0 0.00 0.00 0.00 87 1009.0
20260508162914 84 103 0.0 4.0 0.00 0.00 0.00 87 1009.0
20260508162415 84 86 0.0 3.0 0.00 0.00 0.00 86 1009.0
20260508161914 84 87 0.0 4.0 0.00 0.00 0.00 86 1009.0
20260508161415 84 111 0.0 5.0 0.00 0.00 0.00 86 1009.0
20260508160915 84 98 1.0 4.0 0.00 0.00 0.00 86 1009.0
20260508160417 84 77 0.0 4.0 0.00 0.00 0.00 86 1009.0
20260508155914 84 108 0.0 4.0 0.00 0.00 0.00 85 1009.0
20260508155415 84 94 0.0 4.0 0.00 0.00 0.00 86 1009.0
20260508154915 84 98 0.0 4.0 0.00 0.00 0.00 86 1009.0
20260508154417 84 58 0.0 4.0 0.00 0.00 0.00 86 1009.0
20260508153917 84 86 0.0 4.0 0.00 0.00 0.00 86 1009.0
20260508153417 84 91 1.0 5.0 0.00 0.00 0.00 86 1009.0
20260508152916 84 86 4.0 6.0 0.00 0.00 0.00 86 1009.0
20260508152416 84 78 0.0 6.0 0.00 0.00 0.00 86 1009.0
20260508151918 84 83 0.0 6.0 0.00 0.00 0.00 85 1009.0
20260508151416 84 41 0.0 6.0 0.00 0.00 0.00 86 1009.0
20260508150915 84 71 0.0 6.0 0.00 0.00 0.00 85 1008.0
20260508150419 84 68 0.0 10.0 0.00 0.00 0.00 85 1008.0
20260508145914 84 71 0.0 10.0 0.00 0.00 0.00 86 1009.0
20260508145413 84 88 4.0 10.0 0.00 0.00 0.00 86 1009.0
20260508144915 84 110 1.0 7.0 0.00 0.00 0.00 87 1009.0
20260508144416 84 72 0.0 8.0 0.00 0.00 0.00 87 1009.0
20260508143917 84 76 2.0 8.0 0.00 0.00 0.00 87 1008.0
20260508143415 84 65 0.0 8.0 0.00 0.00 0.00 87 1008.0
20260508142916 84 44 0.0 9.0 0.00 0.00 0.00 86 1008.0
20260508142417 84 92 1.0 9.0 0.00 0.00 0.00 86 1008.0
20260508141915 85 94 4.0 6.0 0.00 0.00 0.00 86 1008.0
20260508141415 85 46 0.0 6.0 0.00 0.00 0.00 86 1008.0
20260508140915 85 72 0.0 7.0 0.00 0.00 0.00 86 1008.0
20260508140416 85 80 0.0 8.0 0.00 0.00 0.00 86 1008.0
20260508135916 85 85 6.0 8.0 0.00 0.00 0.00 86 1008.0
20260508135413 85 82 3.0 7.0 0.00 0.00 0.00 86 1008.0
20260508134916 85 98 5.0 8.0 0.00 0.00 0.00 85 1008.0
20260508134414 85 60 0.0 8.0 0.00 0.00 0.00 86 1008.0
20260508133917 85 81 0.0 8.0 0.00 0.00 0.00 86 1008.0
20260508133415 85 75 5.0 10.0 0.00 0.00 0.00 85 1008.0
20260508132915 85 63 1.0 10.0 0.00 0.00 0.00 85 1008.0
20260508132415 85 51 4.0 9.0 0.00 0.00 0.00 85 1008.0
20260508131917 85 71 7.0 9.0 0.00 0.00 0.00 84 1007.0
20260508131415 85 20 4.0 9.0 0.00 0.00 0.00 84 1007.0
20260508130916 85 70 8.0 12.0 0.00 0.00 0.00 84 1007.0
20260508130416 85 80 7.0 12.0 0.00 0.00 0.00 83 1007.0
20260508125918 85 103 1.0 9.0 0.00 0.00 0.00 83 1007.0
20260508125415 86 34 9.0 10.0 0.00 0.00 0.00 83 1007.0
20260508124915 86 58 2.0 10.0 0.00 0.00 0.00 83 1007.0
20260508124415 86 92 1.0 10.0 0.00 0.00 0.00 83 1007.0
20260508123916 86 59 8.0 11.0 0.00 0.00 0.00 82 1007.0
20260508123421 86 38 8.0 12.0 0.00 0.00 0.00 82 1007.0
20260508122915 86 66 7.0 13.0 0.00 0.00 0.00 82 1007.0
20260508122415 86 76 7.0 13.0 0.00 0.00 0.00 80 1007.0
20260508121915 86 56 5.0 13.0 0.00 0.00 0.00 80 1007.0
20260508121415 87 60 9.0 15.0 0.00 0.00 0.00 79 1007.0
20260508120917 87 56 5.0 15.0 0.00 0.00 0.00 78 1007.0
20260508120414 87 95 3.0 14.0 0.00 0.00 0.00 78 1007.0
20260508115916 87 75 1.0 13.0 0.00 0.00 0.00 76 1007.0
20260508115417 87 63 9.0 11.0 0.00 0.00 0.00 76 1007.0
20260508114915 87 103 0.0 10.0 0.00 0.00 0.00 76 1007.0
20260508114413 87 88 3.0 11.0 0.00 0.00 0.00 75 1006.0
20260508113916 88 98 6.0 13.0 0.00 0.00 0.00 76 1006.0
20260508113417 88 70 7.0 13.0 0.00 0.00 0.00 74 1006.0
20260508112916 88 96 6.0 13.0 0.00 0.00 0.00 72 1006.0
20260508112417 89 49 0.0 17.0 0.00 0.00 0.00 70 1006.0
20260508111916 89 63 9.0 17.0 0.00 0.00 0.00 69 1006.0
20260508111417 89 39 0.0 14.0 0.00 0.00 0.00 70 1006.0
20260508110914 89 53 11.0 14.0 0.00 0.00 0.00 70 1006.0
20260508110415 89 65 4.0 12.0 0.00 0.00 0.00 69 1006.0
20260508105917 89 61 8.0 16.0 0.00 0.00 0.00 69 1006.0
20260508105415 89 86 13.0 16.0 0.00 0.00 0.00 69 1006.0
20260508104914 89 101 5.0 15.0 0.00 0.00 0.00 68 1006.0
20260508104416 89 70 0.0 15.0 0.00 0.00 0.00 68 1006.0
20260508103916 90 70 10.0 14.0 0.00 0.00 0.00 69 1006.0
20260508103415 90 62 8.0 12.0 0.00 0.00 0.00 70 1006.0
20260508102915 89 49 5.0 12.0 0.00 0.00 0.00 70 1006.0
20260508102417 89 46 8.0 13.0 0.00 0.00 0.00 70 1007.0
20260508101915 89 39 4.0 13.0 0.00 0.00 0.00 72 1006.0
20260508101415 89 94 7.0 12.0 0.00 0.00 0.00 71 1007.0
20260508100917 89 94 5.0 12.0 0.00 0.00 0.00 72 1007.0
20260508100416 89 42 4.0 12.0 0.00 0.00 0.00 74 1007.0
20260508095916 89 36 3.0 12.0 0.00 0.00 0.00 75 1007.0
20260508095417 88 60 5.0 12.0 0.00 0.00 0.00 75 1007.0
20260508094913 89 77 10.0 14.0 0.00 0.00 0.00 76 1007.0
20260508094416 88 48 8.0 14.0 0.00 0.00 0.00 75 1007.0
20260508093917 89 70 9.0 12.0 0.00 0.00 0.00 75 1007.0
20260508093414 89 75 9.0 12.0 0.00 0.00 0.00 75 1007.0
20260508092917 88 44 1.0 13.0 0.00 0.00 0.00 77 1007.0
20260508092417 88 65 1.0 16.0 0.00 0.00 0.00 76 1007.0
20260508091917 88 52 4.0 14.0 0.00 0.00 0.00 78 1007.0
20260508091416 88 79 4.0 14.0 0.00 0.00 0.00 77 1007.0
20260508090915 88 93 6.0 12.0 0.00 0.00 0.00 77 1007.0
20260508090414 88 77 6.0 12.0 0.00 0.00 0.00 77 1007.0
20260508085916 88 63 11.0 12.0 0.00 0.00 0.00 77 1007.0
20260508085417 87 1 0.0 15.0 0.00 0.00 0.00 78 1007.0
20260508084915 88 62 7.0 15.0 0.00 0.00 0.00 78 1007.0
20260508084418 88 49 3.0 12.0 0.00 0.00 0.00 78 1007.0
20260508083916 88 63 7.0 13.0 0.00 0.00 0.00 78 1007.0
20260508083415 88 60 7.0 13.0 0.00 0.00 0.00 78 1007.0
20260508082915 87 58 2.0 11.0 0.00 0.00 0.00 79 1007.0
20260508082418 87 113 5.0 15.0 0.00 0.00 0.00 80 1007.0
20260508081915 87 76 10.0 15.0 0.00 0.00 0.00 79 1007.0
20260508081415 88 49 3.0 14.0 0.00 0.00 0.00 79 1007.0
20260508080915 88 96 6.0 17.0 0.00 0.00 0.00 80 1007.0
20260508080414 88 60 5.0 17.0 0.00 0.00 0.00 80 1007.0
20260508075917 87 108 0.0 14.0 0.00 0.00 0.00 81 1007.0
20260508075417 87 46 10.0 14.0 0.00 0.00 0.00 81 1007.0
20260508074918 87 92 10.0 12.0 0.00 0.00 0.00 80 1007.0
20260508074415 87 46 8.0 15.0 0.00 0.00 0.00 82 1008.0
20260508073916 87 77 0.0 15.0 0.00 0.00 0.00 82 1007.0
20260508073418 87 72 12.0 15.0 0.00 0.00 0.00 82 1008.0
20260508072914 87 55 7.0 15.0 0.00 0.00 0.00 83 1008.0
20260508072416 87 60 13.0 15.0 0.00 0.00 0.00 82 1008.0
20260508071917 86 56 4.0 20.0 0.00 0.00 0.00 83 1008.0
20260508071415 86 83 5.0 20.0 0.00 0.00 0.00 84 1008.0
20260508070914 86 80 3.0 17.0 0.00 0.00 0.00 83 1008.0
20260508070415 87 58 14.0 18.0 0.00 0.00 0.00 83 1008.0
20260508065914 86 96 10.0 18.0 0.00 0.00 0.00 82 1008.0
20260508065414 87 56 11.0 18.0 0.00 0.00 0.00 81 1009.0
20260508064915 86 107 9.0 18.0 0.00 0.00 0.00 81 1009.0
20260508064419 86 94 5.0 17.0 0.00 0.00 0.00 84 1009.0
20260508063915 86 113 4.0 18.0 0.00 0.00 0.00 84 1009.0
20260508063415 86 129 6.0 18.0 0.00 0.00 0.00 84 1009.0
20260508062918 87 99 15.0 17.0 0.00 0.00 0.00 83 1009.0
20260508062414 87 60 10.0 18.0 0.00 0.00 0.00 84 1009.0
20260508061914 87 53 4.0 18.0 0.00 0.00 0.00 84 1009.0
20260508061413 87 14 5.0 20.0 0.00 0.00 0.00 85 1009.0
20260508060915 86 77 7.0 20.0 0.00 0.00 0.00 84 1009.0
20260508060416 87 79 13.0 19.0 0.00 0.00 0.00 85 1009.0
20260508055917 87 77 15.0 17.0 0.00 0.00 0.00 84 1009.0
20260508055416 87 113 14.0 16.0 0.00 0.00 0.00 86 1009.0
20260508054913 87 100 12.0 16.0 0.00 0.00 0.00 85 1009.0
20260508054415 87 94 5.0 17.0 0.00 0.00 0.00 84 1010.0
20260508053917 87 51 4.0 17.0 0.00 0.00 0.00 85 1009.0
20260508053415 87 53 5.0 17.0 0.00 0.00 0.00 83 1009.0
20260508052918 88 78 13.0 15.0 0.00 0.00 0.00 83 1009.0
20260508052414 89 82 6.0 13.0 0.00 0.00 0.00 83 1009.0
20260508051915 89 48 4.0 13.0 0.00 0.00 0.00 82 1009.0
20260508051414 89 40 9.0 13.0 0.00 0.00 0.00 81 1009.0
20260508050915 88 68 7.0 14.0 0.00 0.00 0.00 82 1009.0
20260508050414 88 77 2.0 16.0 0.00 0.00 0.00 83 1009.0
20260508045917 88 58 13.0 16.0 0.00 0.00 0.00 84 1009.0
20260508045413 88 102 13.0 14.0 0.00 0.00 0.00 83 1009.0
20260508044914 88 93 6.0 12.0 0.00 0.00 0.00 83 1009.0
20260508044414 88 113 11.0 15.0 0.00 0.00 0.00 82 1009.0
20260508043914 88 113 2.0 15.0 0.00 0.00 0.00 82 1009.0
20260508043418 88 105 0.0 14.0 0.00 0.00 0.00 83 1009.0
20260508042913 88 120 0.0 9.0 0.00 0.00 0.00 84 1009.0
20260508042414 88 125 0.0 9.0 0.00 0.00 0.00 85 1009.0
20260508041914 88 106 0.0 6.0 0.00 0.00 0.00 84 1009.0
20260508041417 88 133 0.0 6.0 0.00 0.00 0.00 84 1009.0
20260508040915 88 124 0.0 0.0 0.00 0.00 0.00 82 1009.0
20260508040417 88 124 0.0 0.0 0.00 0.00 0.00 83 1009.0
20260508035915 88 113 0.0 0.0 0.00 0.00 0.00 82 1009.0
20260508035415 89 155 0.0 0.0 0.00 0.00 0.00 81 1009.0
20260508034914 89 134 0.0 0.0 0.00 0.00 0.00 82 1009.0
20260508034416 88 105 0.0 0.0 0.00 0.00 0.00 82 1009.0
20260508033917 89 101 0.0 0.0 0.00 0.00 0.00 81 1009.0
20260508033417 89 250 0.0 0.0 0.00 0.00 0.00 81 1009.0
20260508032913 88 250 0.0 2.0 0.00 0.00 0.00 81 1009.0
20260508032413 88 207 0.0 2.0 0.00 0.00 0.00 81 1009.0
20260508031915 88 134 0.0 0.0 0.00 0.00 0.00 82 1009.0
20260508031417 88 146 0.0 0.0 0.00 0.00 0.00 82 1009.0
20260508030913 87 160 0.0 5.0 0.00 0.00 0.00 85 1009.0
20260508030414 86 165 0.0 6.0 0.00 0.00 0.00 87 1009.0
20260508025915 86 162 0.0 7.0 0.00 0.00 0.00 88 1009.0
20260508025415 86 150 0.0 7.0 0.00 0.00 0.00 87 1009.0
20260508024913 87 139 0.0 0.0 0.00 0.00 0.00 87 1009.0